www.pogodaiklimat.ru
Время
(UTC), дата
20:51 30.12
20:57 30.12
21:34 30.12
21:51 30.12
22:04 30.12
22:09 30.12
22:19 30.12
22:51 30.12
23:51 30.12
00:17 30.12
00:51 30.12
01:33 30.12
01:51 30.12
02:49 30.12
02:51 30.12
03:10 30.12
03:32 30.12
03:51 30.12
04:51 31.12
05:51 31.12
06:14 31.12
06:35 31.12
06:51 31.12
07:03 31.12
07:13 31.12
07:51 31.12
08:48 31.12
08:51 31.12
09:51 31.12
10:01 31.12
10:51 31.12
11:51 31.12
12:51 31.12
13:51 31.12
14:51 31.12
15:51 31.12
16:30 31.12
16:51 31.12
17:37 31.12
17:51 31.12
18:23 31.12
18:46 31.12
18:51 31.12
19:51 31.12
20:28 31.12
20:42 31.12
20:51 31.12
21:51 31.12
Ветер
(напр.,м/с)
Видим. Явления Облачность Т
(С)
Тd
(С)
f
(%)
Тe
(С)
Тes
(С)
Комфортность P
(гПа)
Po
(гПа)
Тmin
(С)
Tmax
(С)
R
(мм)
R24
(мм)
S
(см)
С 3 4 км гроза со слабым дождем, дымка 10/10 180 м +1.1 0.0 92 -4 -4 1012.6 1006.1
С 6 5 км дымка 10/10 270 м +1.1 0.0 92 -6 -6 1004.4
С 4 3 км дымка 10/10 150 м +0.6 -0.6 92 -5 -5 1006.1
С 4 2 км дымка 10/10 210 м +0.6 -0.6 92 -6 -6 1012.5 1006.1
С 5 3 км дымка 10/10 120 м +0.6 -0.6 92 -6 -6 1005.7
СВ 4 3 км дымка 10/10 120 м +0.6 -0.6 92 -6 -6 1006.1
С 4 3 км дымка 10/10 150 м +0.6 -0.6 92 -6 -6 1006.1
С 4 3 км слабый дождь, дымка 10/10 150 м +0.6 -0.6 92 -6 -6 1013.4 1006.7 +0.6 +2.2
С 6 3 км слабый дождь, дымка 10/10 150 м +0.6 -0.6 92 -7 -7 1012.6 1006.1
С 6 3 км слабый дождь, дымка 10/10 150 м +0.6 -0.6 92 -7 -7 1005.7
С 6 3 км слабый дождь, дымка 10/10 150 м +0.6 -0.6 92 -6 -6 1012.0 1005.4
С 6 3 км слабый замерзающий дождь, дымка 10/10 180 м 0.0 -0.6 96 -7 -7 1005.1
С 6 3 км слабый замерзающий дождь, дымка 10/10 180 м 0.0 -0.6 96 -7 -7 1011.3 1004.7
С 7 3 км слабый дождь, дымка 10/10 180 м +1.0 -1.0 86 -6 -6 1004.0
С 6 3 км слабый дождь, дымка 10/10 180 м +0.6 -0.6 92 -6 -6 1010.5 1004.0
С 6
{10}
3 км дымка 10/10 180 м +0.6 -0.6 92 -7 -7 1003.7
С 6 3 км слабый дождь, дымка 10/10 180 м +0.6 -0.6 92 -7 -7 1003.0
С 7 3 км слабая морось, дымка 10/10 180 м +0.6 -0.6 92 -7 -7 1009.2 1002.7
С 6 3 км слабый дождь, дымка 10/10 210 м +0.6 -0.6 92 -7 -7 1008.2 1001.7 0.0 +0.6
С 6 3 км слабый дождь, дымка 10/10 150 м +0.6 -0.6 92 -6 -6 1007.5 1001.0
С 5 3 км слабая морось, дымка 10/10 150 м +0.6 -0.6 92 -6 -6 1001.0
С 5 3 км слабый дождь, дымка 10/10 180 м +0.6 -0.6 92 -6 -6 1001.0
С 4 6 км слабая морось, дымка 10/10 180 м +0.6 -0.6 92 -5 -5 1007.5 1001.0
С 5 5 км слабый замерзающий дождь, дымка 10/10 180 м 0.0 -0.6 96 -7 -7 1001.0
С 6 5 км слабая замерзающая морось, дымка 10/10 180 м 0.0 -0.6 96 -7 -7 1001.0
С 4 6 км слабая замерзающая морось, дымка 10/10 180 м 0.0 -1.1 92 -6 -6 1007.3 1000.7
С 6 11 км 10/10 210 м 0.0 -1.0 93 -7 -7 999.3
С 6 13 км 10/10 210 м 0.0 -1.1 92 -7 -7 1005.8 999.3
С 4 16 км 10/10 210 м 0.0 -1.1 92 -6 -6 1006.0 999.3
С 4 16 км 10/10 210 м 0.0 -1.1 92 -6 -6 999.3
С 4 16 км 10/10 240 м 0.0 -1.1 92 -6 -6 1005.8 999.3 0.0 +0.6 39.1
СЗ 4 16 км 10/10 270 м +0.6 -1.1 88 -5 -5 1006.2 999.7
С 4 16 км 10/10 270 м +1.1 -0.6 88 -4 -4 1005.7 999.3
С 4 16 км 10/10 270 м +1.1 -0.6 88 -4 -4 1005.3 998.7
С 4 16 км 10/10 300 м +1.7 -1.1 82 -3 -3 1004.4 998.0
СВ 3 16 км 10/10 0 м +1.7 -0.6 85 -3 -3 1002.7 996.3
СВ 2 16 км 10/10 390 м +2.2 -0.6 82 -2 -2 996.0
0 16 км 10/10 390 м +2.2 0.0 85 +1 +1 1002.4 996.0 0.0 +2.2
0 10 км дымка 10/10 450 м +2.2 0.0 85 +1 +1 995.6
0 10 км дымка 10/10 450 м +2.2 0.0 85 +1 +1 1001.7 995.3
В 1 11 км 10/10 360 м +2.2 0.0 85 -0 -0 995.0
ЮВ 1 16 км 10/10 270 м +2.0 0.0 87 -1 -1 995.0
ЮВ 1 16 км 10/10 270 м +2.2 0.0 85 -0 -0 1001.6 995.0
0 16 км 10/10 240 м +1.7 0.0 88 +1 +1 1001.8 995.3
ЮВ 2 16 км 10/10 270 м +1.7 0.0 88 -2 -2 995.3
ЮВ 3 16 км 10/10 510 м +1.1 0.0 92 -4 -4 995.0
Ю 3 16 км 10/10 510 м +1.1 0.0 92 -4 -4 1001.9 995.3
Ю 3 16 км 10/2 510 м
[средняя]
+1.7 0.0 88 -3 -3 1001.9 995.3
Местоположение метеостанции Bradley International Airport: широта 41.9381 долгота -72.6825 высота над уровнем моря 53 м.
В архиве по умолчанию представлена погода в Виндзор Локс за последние 1-2 суток. Обновление информации о фактической погоде в базе происходит ежечасно! Архивные данные за месяц целиком и за предыдущие месяцы Вы можете получить, выбрав интересующий диапазон дат из раскрывающегося списка и нажав кнопку "Ввод!".
Внимание! Архив погоды МЕТАР в базе сайта по станциям, не включенным в климатический монитор, хранится не более 60 дней. Нет смысла пытаться выбрать более раннюю дату.
*Определитесь, кто Вы:
Внимание! Время в таблицах - всемирное. Для получения местного времени необходимо прибавить поправку, которая равна ч.
Смотрите также архив погоды в соседних городах и на ближайших метеорологических станциях:
Партнеры нашего сайта:      
Пояснения к столбцам:
  • Ветер - указаны скорость ветра в м/с - средняя за 10 мин, порывы в срок и между сроками (в фигурных скобках) и направление, откуда дует ветер: С - северный,
  • СВ - северо-восточный, В - восточный, ЮВ - юго-восточный, Ю - южный, ЮЗ - юго-западный, З - западный, СЗ - северо-западный.
  • Видимость - горизонтальная дальность видимости в метрах или километрах. При видимости от 1 до 10 км при отсутствии осадков обычно наблюдается дымка, при ухудшении видимости до 1 км и менее - туман. В сухую погоду видимость может ухудшаться дымом, пылью или мглою.
  • Явления - указаны атмосферные явления, наблюдавшиеся в срок или в последний час перед сроком; фигурными скобками обозначены явления, наблюдавшиеся между сроками (за 1-3 часа до срока); квадратными скобками обозначены град или гололедные отложения с указанием их диаметра в мм.
  • Облачность - указаны через наклонную черту общая и нижняя облачность в баллах и высота нижней границы облаков в метрах; квадратными скобками обозначены формы облаков: Ci - перистые, Cs - перисто-слоистые, Cc - перисто-кучевые, Ac - высококучевые, As - высокослоистые, Sc - слоисто-кучевые, Ns - слоисто-дождевые, Cu - кучевые, Cb - кучево-дождевые. Подробнее классификацию облаков см. в Атласе облаков (PDF).
  • T - Температура воздуха - температура, измеренная на высоте 2 м над землей.
  • Td - Температура точки росы - температура, при понижении до которой содержащийся в воздухе водяной пар достигнет насыщения.
  • f - Относительная влажность воздуха - влажноcть воздуха, измеренная на высоте 2 м над землей.
  • Te - Эффективная температура - температура, которую ощущает одетый по сезону человек в тени. Характеристика душности погоды. При расчете учитывается влияние влажности воздуха и скорости ветра на теплоощущения человека.
  • Tes - Эффективная температура на солнце - температура, которую ощущает человек, с поправкой на солнечный нагрев. Характеристика знойности погоды. Зависит от высоты солнца над горизонтом, облачности и скорости ветра. Ночью, в пасмурную погоду, а также при ветре 12 м/с и более поправка равна нулю.
  • P - Атмосферное давление - приведенное к уровню моря атмосферное давление.
  • Po - Атмосферное давление - измеренное на уровне метеостанции атмосферное давление.
  • Tmin - Минимальная температура - минимум температуры воздуха на высоте 2 м над землей.
  • Tmax - Максимальная температура - максимум температуры воздуха на высоте 2 м над землей.
  • R - Количество осадков - Количество выпавших осадков за период времени, мм. При наведении курсора мыши на число - период времени, за который выпало указанное количество осадков.
  • R24 - Количество осадков - Количество выпавших осадков за 24 часа, мм.
  • S - Снежный покров - Высота снежного покрова, см. При наведении курсора мыши на число - состояние снежного покрова и степень покрытия местности в баллах.